Time,TemperatureF,DewpointF,PressureIn,WindDirection,WindDirectionDegrees,WindSpeedMPH,WindSpeedGustMPH,Humidity,HourlyPrecipIn,Conditions,Clouds,dailyrainin,SoftwareType,DateUTC
2013-03-22 00:00:00,27.8,18.9,29.92,ESE,106,2.0,4.0,69,0.00,RA,,0.00,WeatherDisplay:10.37,2013-03-22 06:00:00,
2013-03-22 00:30:00,27.3,18.5,29.92,East,97,0.0,6.0,69,0.00,CLR,,0.00,WeatherDisplay:10.37,2013-03-22 06:30:00,
2013-03-22 01:00:00,25.8,17.7,29.92,East,95,0.0,4.0,71,0.00,CLR,,0.00,WeatherDisplay:10.37,2013-03-22 07:00:00,
2013-03-22 01:30:00,25.5,18.0,29.92,East,100,0.0,5.0,73,0.00,CLR,,0.00,WeatherDisplay:10.37,2013-03-22 07:30:00,
2013-03-22 02:00:00,26.2,18.1,29.92,East,98,1.0,6.0,71,0.00,CLR,,0.00,WeatherDisplay:10.37,2013-03-22 08:00:00,
2013-03-22 02:30:00,26.3,17.8,29.91,ESE,109,2.0,10.0,70,0.00,CLR,,0.00,WeatherDisplay:10.37,2013-03-22 08:30:00,
2013-03-22 03:00:00,26.4,17.9,29.89,East,94,3.0,7.0,70,0.00,CLR,,0.00,WeatherDisplay:10.37,2013-03-22 09:00:00,
2013-03-22 03:30:00,26.6,17.8,29.89,East,89,2.0,7.0,69,0.00,CLR,,0.00,WeatherDisplay:10.37,2013-03-22 09:30:00,
2013-03-22 04:00:00,26.2,17.4,29.89,East,99,1.0,10.0,69,0.00,CLR,,0.00,WeatherDisplay:10.37,2013-03-22 10:00:00,
2013-03-22 04:30:00,26.5,17.4,29.88,SE,127,3.0,7.0,68,0.00,CLR,,0.00,WeatherDisplay:10.37,2013-03-22 10:30:00,
2013-03-22 05:00:00,26.7,17.6,29.88,East,98,0.0,6.0,68,0.00,CLR,,0.00,WeatherDisplay:10.37,2013-03-22 11:00:00,
2013-03-22 05:30:00,26.2,17.4,29.88,ESE,104,0.0,5.0,69,0.00,CLR,,0.00,WeatherDisplay:10.37,2013-03-22 11:30:00,
2013-03-22 06:00:00,25.1,17.4,29.88,ESE,112,2.0,5.0,72,0.00,CLR,,0.00,WeatherDisplay:10.37,2013-03-22 12:00:00,
2013-03-22 06:30:00,23.8,17.0,29.88,ESE,120,1.0,4.0,75,0.00,CLR,,0.00,WeatherDisplay:10.37,2013-03-22 12:30:00,
2013-03-22 07:00:00,24.1,16.7,29.88,ESE,118,2.0,7.0,73,0.00,CLR,,0.00,WeatherDisplay:10.37,2013-03-22 13:00:00,
2013-03-22 07:30:00,23.4,16.7,29.88,ESE,106,1.0,5.0,75,0.00,CLR,,0.00,WeatherDisplay:10.37,2013-03-22 13:30:00,
2013-03-22 08:00:00,24.0,16.9,29.87,ESE,106,0.0,3.0,74,0.00,CLR,,0.00,WeatherDisplay:10.37,2013-03-22 14:00:00,
2013-03-22 08:30:00,27.6,17.7,29.88,ESE,109,1.0,4.0,66,0.00,CLR,,0.00,WeatherDisplay:10.37,2013-03-22 14:30:00,
2013-03-22 09:00:00,32.4,18.4,29.87,ESE,110,0.0,1.0,56,0.00,CLR,,0.00,WeatherDisplay:10.37,2013-03-22 15:00:00,
2013-03-22 09:30:00,32.0,17.6,29.87,West,261,0.0,4.0,55,0.00,CLR,,0.00,WeatherDisplay:10.37,2013-03-22 15:30:00,
2013-03-22 10:00:00,34.0,17.3,29.86,West,262,1.0,4.0,50,0.00,CLR,,0.00,WeatherDisplay:10.37,2013-03-22 16:00:00,
2013-03-22 10:30:00,35.6,18.8,29.84,West,262,1.0,4.0,50,0.00,CLR,,0.00,WeatherDisplay:10.37,2013-03-22 16:30:00,
2013-03-22 11:00:00,37.3,18.4,29.82,WSW,249,1.0,6.0,46,0.00,CLR,,0.00,WeatherDisplay:10.37,2013-03-22 17:00:00,
2013-03-22 11:30:00,39.2,19.6,29.82,WSW,247,3.0,7.0,45,0.00,CLR,,0.00,WeatherDisplay:10.37,2013-03-22 17:30:00,
2013-03-22 12:00:00,41.7,19.7,29.80,WSW,249,1.0,10.0,41,0.00,CLR,,0.00,WeatherDisplay:10.37,2013-03-22 18:00:00,
2013-03-22 12:30:00,44.0,21.2,29.78,West,269,2.0,7.0,40,0.00,CLR,,0.00,WeatherDisplay:10.37,2013-03-22 18:30:00,
2013-03-22 13:00:00,44.9,16.0,29.76,West,270,6.0,13.0,31,0.00,CLR,,0.00,WeatherDisplay:10.37,2013-03-22 19:00:00,
2013-03-22 13:30:00,46.6,16.8,29.75,WNW,285,5.0,16.0,30,0.00,CLR,,0.00,WeatherDisplay:10.37,2013-03-22 19:30:00,
2013-03-22 14:00:00,46.7,15.3,29.73,WSW,251,14.0,23.0,28,0.00,CLR,,0.00,WeatherDisplay:10.37,2013-03-22 20:00:00,
2013-03-22 14:30:00,47.0,15.5,29.70,WSW,257,8.0,20.0,28,0.00,CLR,,0.00,WeatherDisplay:10.37,2013-03-22 20:30:00,
2013-03-22 15:00:00,49.0,15.6,29.69,West,278,5.0,17.0,26,0.00,CLR,,0.00,WeatherDisplay:10.37,2013-03-22 21:00:00,
2013-03-22 15:30:00,48.3,15.0,29.69,West,278,6.0,21.0,26,0.00,CLR,,0.00,WeatherDisplay:10.37,2013-03-22 21:30:00,
2013-03-22 16:00:00,48.4,12.3,29.68,West,277,8.0,21.0,23,0.00,CLR,,0.00,WeatherDisplay:10.37,2013-03-22 22:00:00,
2013-03-22 16:30:00,47.9,9.8,29.69,West,267,9.0,27.0,21,0.00,CLR,,0.00,WeatherDisplay:10.37,2013-03-22 22:30:00,
2013-03-22 17:00:00,45.4,11.6,29.68,West,265,6.0,27.0,25,0.00,CLR,,0.00,WeatherDisplay:10.37,2013-03-22 23:00:00,
2013-03-22 17:30:00,42.5,14.7,29.70,NNW,333,8.0,14.0,32,0.00,CLR,,0.00,WeatherDisplay:10.37,2013-03-22 23:30:00,
2013-03-22 18:00:00,40.7,15.1,29.71,NW,321,0.0,12.0,35,0.00,CLR,,0.00,WeatherDisplay:10.37,2013-03-23 00:00:00,
2013-03-22 18:30:00,39.4,15.8,29.74,West,263,1.0,9.0,38,0.00,CLR,,0.00,WeatherDisplay:10.37,2013-03-23 00:30:00,
2013-03-22 19:00:00,37.8,16.2,29.75,NW,322,2.0,10.0,41,0.00,CLR,,0.00,WeatherDisplay:10.37,2013-03-23 01:00:00,
2013-03-22 19:30:00,36.6,16.7,29.78,West,262,1.0,9.0,44,0.00,CLR,,0.00,WeatherDisplay:10.37,2013-03-23 01:30:00,
2013-03-22 20:00:00,35.3,16.6,29.81,NNE,13,3.0,9.0,46,0.00,CLR,,0.00,WeatherDisplay:10.37,2013-03-23 02:00:00,
2013-03-22 20:30:00,34.0,16.8,29.83,North,3,3.0,12.0,49,0.00,CLR,,0.00,WeatherDisplay:10.37,2013-03-23 02:30:00,
2013-03-22 21:00:00,33.4,17.2,29.85,West,271,5.0,9.0,51,0.00,CLR,,0.00,WeatherDisplay:10.37,2013-03-23 03:00:00,
2013-03-22 21:30:00,32.5,17.2,29.85,WSW,241,5.0,12.0,53,0.00,CLR,,0.00,WeatherDisplay:10.37,2013-03-23 03:30:00,
2013-03-22 22:00:00,31.3,16.5,29.87,WSW,240,0.0,7.0,54,0.00,CLR,,0.00,WeatherDisplay:10.37,2013-03-23 04:00:00,
2013-03-22 22:30:00,31.5,12.6,29.87,NNW,327,0.0,5.0,45,0.00,CLR,,0.00,WeatherDisplay:10.37,2013-03-23 04:30:00,
2013-03-22 23:00:00,31.3,14.3,29.87,NNW,341,0.0,7.0,49,0.00,CLR,,0.00,WeatherDisplay:10.37,2013-03-23 05:00:00,
2013-03-22 23:30:00,31.0,10.6,29.89,NW,309,2.0,13.0,42,0.00,CLR,,0.00,WeatherDisplay:10.37,2013-03-23 05:30:00,